DW6233 Weather Reports


Display with metric or nautical units.
time (UTC)temp
F
wind
direction
speed
MPH
gust
MPH
rain 1hr
in
rain 24hr
in
rain mn
in
humidity
%
barometer
mb
20260508063037 64 53 13.0 28.0 0.00 0.02 0.01 79 1002.9
20260508061528 64 325 13.0 35.0 0.00 0.02 0.01 78 1002.6
20260508060038 63 353 13.0 35.0 0.00 0.02 0.01 79 1002.6
20260508054548 64 38 14.0 30.0 0.00 0.02 0.01 76 1002.9
20260508053025 65 12 16.0 29.0 0.00 0.02 0.01 75 1003.1
20260508051541 65 79 17.0 28.0 0.00 0.02 0.01 73 1003.6
20260508050019 64 98 7.0 21.0 0.00 0.02 0.01 74 1003.8
20260508044515 64 78 12.0 23.0 0.00 0.02 0.01 73 1004.3
20260508043005 64 52 9.0 28.0 0.00 0.02 0.01 74 1004.6
20260508041558 64 36 12.0 34.0 0.00 0.02 0.01 73 1004.2
20260508040043 64 357 15.0 32.0 0.00 0.02 0.01 76 1003.9
20260508034509 62 24 14.0 25.0 0.00 0.02 0.01 81 1004.3
20260508033040 62 73 15.0 26.0 0.00 0.02 0.01 83 1004.7
20260508031528 62 38 17.0 39.0 0.00 0.02 0.01 81 1005.4
20260508030028 64 52 17.0 36.0 0.00 0.02 0.01 76 1005.4
20260508024619 65 17 17.0 33.0 0.00 0.02 0.01 76 1005.8
20260508023019 64 26 16.0 33.0 0.00 0.02 0.01 76 1006.2
20260508021513 64 135 18.0 31.0 0.00 0.02 0.01 78 1006.8
20260508014625 64 45 22.0 36.0 0.00 0.02 0.01 78 1008.0
20260508013013 65 59 17.0 30.0 0.00 0.02 0.01 77 1008.4
20260508011559 65 12 15.0 34.0 0.00 0.02 0.01 79 1008.8
20260508010022 65 78 14.0 30.0 0.00 0.02 0.01 78 1009.3
20260508004556 66 135 15.0 28.0 0.00 0.02 0.01 76 1009.2
20260508003028 66 41 14.0 31.0 0.00 0.02 0.01 77 1009.8
20260508001535 65 81 12.0 29.0 0.00 0.02 0.01 78 1010.3
20260508000009 65 79 11.0 29.0 0.00 0.02 0.01 78 1010.7
20260507234512 65 71 10.0 27.0 0.00 0.02 0.01 78 1010.9
20260507233009 65 322 13.0 31.0 0.00 0.02 0.01 78 1011.1
20260507231514 65 64 12.0 28.0 0.00 0.02 0.01 78 1011.4
20260507230056 65 79 8.0 28.0 0.00 0.02 0.01 79 1011.5
20260507223018 65 109 8.0 25.0 0.00 0.02 0.01 79 1011.7
20260507221508 64 112 13.0 22.0 0.00 0.02 0.01 80 1011.8
20260507220059 64 85 11.0 26.0 0.00 0.02 0.01 80 1012.1
20260507214548 64 56 12.0 25.0 0.00 0.02 0.01 80 1012.1
20260507213101 64 6 10.0 29.0 0.00 0.02 0.01 80 1012.3
20260507211537 64 5 11.0 26.0 0.00 0.02 0.01 80 1012.5
20260507210008 64 112 8.0 26.0 0.00 0.02 0.01 80 1012.7
20260507203021 64 193 10.0 25.0 0.00 0.02 0.01 81 1012.7
20260507201518 64 105 7.0 28.0 0.00 0.02 0.01 81 1012.7
20260507200043 64 80 13.0 23.0 0.00 0.02 0.01 81 1012.7
20260507194515 63 66 12.0 26.0 0.00 0.02 0.01 81 1012.7
20260507193002 63 341 8.0 18.0 0.00 0.02 0.01 83 1012.8
20260507191542 63 60 6.0 22.0 0.00 0.02 0.01 82 1012.9
20260507190038 63 19 8.0 23.0 0.00 0.02 0.01 81 1012.9
20260507184535 63 190 8.0 23.0 0.00 0.02 0.01 81 1013.0
20260507183048 63 54 10.0 19.0 0.00 0.02 0.01 81 1013.2
20260507181525 63 55 12.0 25.0 0.00 0.02 0.01 81 1013.1
20260507180048 63 76 11.0 23.0 0.00 0.02 0.01 81 1013.2
20260507174516 63 26 10.0 22.0 0.00 0.02 0.01 82 1013.2
20260507173058 63 57 7.0 21.0 0.00 0.02 0.01 82 1013.3
20260507171523 63 36 11.0 21.0 0.00 0.02 0.01 82 1013.5
20260507170030 62 43 10.0 23.0 0.00 0.02 0.01 84 1013.5
20260507164527 62 57 11.0 20.0 0.00 0.02 0.01 85 1013.5
20260507163058 62 26 8.0 23.0 0.00 0.02 0.01 85 1013.6
20260507161510 62 221 7.0 21.0 0.00 0.02 0.01 86 1013.5
20260507160127 61 42 13.0 24.0 0.00 0.02 0.01 87 1013.5
20260507154513 62 50 8.0 19.0 0.00 0.02 0.01 87 1013.8
20260507153101 62 38 11.0 23.0 0.00 0.02 0.01 87 1014.1
20260507151549 62 41 10.0 23.0 0.00 0.02 0.01 86 1014.4
20260507150006 63 90 13.0 30.0 0.00 0.02 0.01 85 1014.6
20260507144543 62 141 9.0 21.0 0.01 0.02 0.01 87 1014.9
20260507143008 62 219 11.0 24.0 0.01 0.02 0.01 89 1015.0
20260507141536 62 128 13.0 26.0 0.01 0.02 0.01 89 1015.1
20260507140041 61 75 11.0 17.0 0.01 0.02 0.01 89 1015.3
20260507134555 62 57 11.0 24.0 0.00 0.01 0.00 88 1015.6
20260507133014 62 17 20.0 32.0 0.00 0.01 0.00 88 1015.6
20260507131538 62 31 8.0 17.0 0.00 0.01 0.00 87 1015.9
20260507130036 62 106 7.0 20.0 0.00 0.01 0.00 88 1016.0
20260507124517 61 37 9.0 19.0 0.00 0.01 0.00 90 1016.1
20260507123058 62 38 10.0 24.0 0.00 0.01 0.00 88 1016.1
20260507121525 62 86 12.0 25.0 0.00 0.01 0.00 86 1016.1
20260507120033 64 48 10.0 19.0 0.00 0.01 0.00 80 1016.0
20260507114600 63 46 9.0 21.0 0.00 0.01 0.00 82 1015.7
20260507113033 63 39 9.0 19.0 0.00 0.01 0.00 83 1016.1
20260507111555 62 69 10.0 20.0 0.00 0.01 0.00 85 1016.2
20260507110054 62 29 10.0 25.0 0.00 0.01 0.00 86 1016.3
20260507104522 63 28 20.0 36.0 0.00 0.01 0.01 84 1016.6
20260507103004 64 10 20.0 34.0 0.00 0.01 0.01 79 1016.4
20260507101507 65 16 16.0 28.0 0.00 0.01 0.01 76 1016.6
20260507100016 64 22 11.0 18.0 0.00 0.01 0.01 77 1016.5
20260507094531 64 77 10.0 18.0 0.00 0.01 0.01 79 1016.8
20260507093008 63 41 9.0 17.0 0.00 0.01 0.01 80 1017.0
20260507091545 63 95 7.0 18.0 0.00 0.01 0.01 80 1017.3
20260507090033 63 21 10.0 23.0 0.00 0.01 0.01 81 1017.4
20260507083007 64 33 13.0 24.0 0.01 0.01 0.01 79 1017.5
20260507081528 64 36 13.0 23.0 0.01 0.01 0.01 79 1017.5
20260507080057 63 38 17.0 27.0 0.01 0.01 0.01 80 1017.7
20260507074512 63 358 11.0 35.0 0.00 0.00 0.00 80 1017.9
20260507073052 64 26 16.0 26.0 0.00 0.00 0.00 77 1018.1
20260507071548 66 360 14.0 26.0 0.00 0.00 0.00 70 1017.7
20260507064555 65 349 7.0 25.0 0.00 0.00 0.00 72 1017.6